Find Starlink 5334

NORAD ID: 56509 Int'l Des: 2023-065 Owner: SPXS Country: US Constellation: starlink operational
LEOCIRCULAR

現在のビュー

3D地球を読み込み中...

Starlink 5334について

説明を読み込み中...

次回通過

Passes for default location (London). Set your location on the main map for personalized predictions.

高度履歴

Loading altitude history...

軌道要素

1 56509U 23065G 26158.01506150 -.00004041 00000-0 -13753-3 0 9994
2 56509 43.0081 67.7835 0002512 270.3670 89.6894 15.27546297170262
Epoch: Jun 7, 2026 • Age: 25 hours

現在のステータス

高度 485.6 km
速度 7.63 km/s
衛星直下点 33.54°N, 175.24°W
打ち上げ日 May 14, 2023
運用期間 3 years
タイプ internet

技術仕様

分類 Payload
質量 305.00 kg
乾燥質量 290.00 kg
総質量 305.00 kg
長さ 0.20 m
直径 2.80 m
スパン 9.00 m
形状 Box + pan
製造者 SPXS
バスタイプ Starlink
フェーズステータス In Orbit
所有者/国 SPXS/US

Most Searched